Location: Prairie View Elementary School
(39.8322°N, 99.5698°W)
Time: 00:35:45
(UTC+00:00)

Centaur D AC-28 - Pass Details

Date: 08 December 2019
Orbit: 607 x 36448 km, 28.6° (Epoch: 19 January)

Event Time Altitude Azimuth Distance (km) Brightness Sun altitude
Exits shadow 10:24:48 28° 173° (S) 2,349 4.4 -38.0°
Drops below altitude 10° 10:37:21 10° 123° (ESE) 7,243 7.5 -35.6°
Sets 10:52:25 0° 116° (ESE) 12,651 9.1 -32.7°
